ZIYUAN 3 (ZY 3) 1 38046U 12001A 12034.79316341 .00004069 00000-0 18509-3 0 850 2 38046 97.4876 109.8916 0009119 156.2516 352.1453 15.21261742 3900 VESSELSAT 2 1 38047U 12001B 12034.86002709 .00003917 00000-0 16582-3 0 309 2 38047 97.4908 110.0527 0009297 193.0665 167.0330 15.23745322 3922 CZ-4B R/B 1 38048U 12001C 12034.88606428 .00251836 24361-5 41630-3 0 409 2 38048 97.5719 112.5910 0162809 270.0283 88.2351 15.83053525 4064 FENGYUN 2F 1 38049U 12002A 12033.87693683 -.00000352 00000-0 10000-3 0 242 2 38049 2.3660 277.8509 0006254 265.5749 16.9242 1.00276285 269 CZ-3A R/B 1 38050U 12002B 12033.02710928 .00000628 00000-0 16210-2 0 145 2 38050 24.3898 108.6699 7238806 193.4944 124.5870 2.27055226 445 WGS F4 (USA 233) 1 38070U 12003A 12034.60908763 -.00000015 00000-0 10000-3 0 254 2 38070 0.1723 269.6219 1084959 214.4419 105.8489 1.00220458 107 DELTA 4 R/B 1 38071U 12003B 12029.16491328 -.00000226 00000-0 30483-2 0 120 2 38071 23.8803 308.1787 8219605 180.6328 176.6110 1.15035318 108 PROGRESS-M 14M 1 38073U 12004A 12033.84134259 .00011490 00000-0 15185-3 0 206 2 38073 51.6422 80.9621 0020203 359.2243 340.7834 15.58644781756909